Location: Sungai Apap
(2.6167°N, 113.3833°E)
Time: 21:52:47
(UTC+00:00)

Cosmos 1892 Rocket - Pass Details

Date: 05 August 2024
Orbit: 602 x 629 km, 82.5° (Epoch: 12 September)

Event Time Altitude Azimuth Distance (km) Brightness Sun altitude
Exits shadow 12:03:13 31° 48° (NE) 1,105 4.6 -20.8°
Drops below altitude 10° 12:05:51 10° 23° (NNE) 1,984 6.1 -21.5°
Sets 12:08:09 0° 16° (NNE) 2,883 7.0 -22.0°
